Powrót do katalogu

MISR-D-1

AktywnyNaukaSSO
NORAD 69908·PAYLOAD·🇺🇸 United States

Wystrzelony Jul 7, 2026 z Vandenberg Space Force Base

Loading…

Następne Przeloty (najbliższe 24 godziny)

TLE

ŚwieżeSource: Space-Track

Epoka: Sep 13, 2026, 16:52 UTC

1 69908U 26156AR  26256.70317935  .00001095  00000-0  11456-3 0  9993
2 69908  97.7440 155.9743 0004474 281.3030  78.7686 14.91638809 10197

Śledź MISR-D-1 w czasie rzeczywistym z AllMySat

Download on the App Store